Weather History for Montague, CA

Change the Weather History Date:

Friday, October 11, 2013

  Actual Average Record
Temperature  
Mean Temperature 46 °F 54 °F  
Max Temperature 65 °F 71 °F 89 °F (1992)
Min Temperature 27 °F 37 °F 25 °F (2008)
Degree Days  
Heating Degree Days 19 11  
Month to date heating degree days 167 105  
Since 1 July heating degree days 314 247  
Cooling Degree Days 0 0  
Month to date cooling degree days 0 0  
Year to date cooling degree days 776 542  
Moisture  
Dew Point 32 °F    
Average Humidity 64    
Maximum Humidity 92    
Minimum Humidity 28    
Precipitation  
Precipitation 0.00 in 0.03 in 1.85 in (1962)
Month to date precipitation T 0.19  
Year to date precipitation 5.07 11.83  
Sea Level Pressure  
Sea Level Pressure 30.12 in    
Wind  
Wind Speed 3 mph (NNE)    
Max Wind Speed 13 mph    
Max Gust Speed 15 mph    
Visibility 10 miles    
Events      
T = Trace of Precipitation, MM = Missing Value Source: NWS Daily Summary

Daily Weather History Graph

Daily Weather History Graph

Search for Another Location

Airport:

Trip Planner

Search our weather history database for the weather conditions in past years. The results will help you decide how hot, cold, wet, or windy it might be!

Date:

Astronomy

Oct. 11, 2013 Rise Set
Actual Time 7:18 AM PDT 6:34 PM PDT
Civil Twilight 6:50 AM PDT 7:02 PM PDT
Nautical Twilight 6:17 AM PDT 7:34 PM PDT
Astronomical Twilight 5:45 AM PDT 8:06 PM PDT
Moon 2:06 PM PDT (10/11) No Moon Set
Length of Visible Light 12h 12m
Length of Day
11h 16m
Waxing Crescent, 48% of the Moon is Illuminated
Oct 11
Waxing Crescent
Oct 11
First Quarter
Oct 18
Full
Oct 26
Last Quarter
Nov 3
New

Hourly Weather History & Observations

Time (PDT) Temp. Windchill Dew Point Humidity Pressure Visibility Wind Dir Wind Speed Gust Speed Precip Events Conditions
12:53 AM 37.9 °F 35.5 °F 30.0 °F 73% 30.10 in 10.0 mi NE 3.5 mph - N/A   Clear
1:53 AM 35.1 °F - 30.0 °F 82% 30.12 in 10.0 mi Calm Calm - N/A   Clear
2:53 AM 33.1 °F - 28.0 °F 82% 30.12 in 10.0 mi Calm Calm - N/A   Clear
3:53 AM 30.0 °F 25.2 °F 25.0 °F 82% 30.12 in 10.0 mi ENE 4.6 mph - N/A   Clear
4:53 AM 32.0 °F - 28.0 °F 85% 30.14 in 10.0 mi Calm Calm - N/A   Clear
5:53 AM 30.0 °F - 28.0 °F 92% 30.15 in 10.0 mi Calm Calm - N/A   Clear
6:53 AM 28.9 °F 25.2 °F 26.1 °F 89% 30.17 in 10.0 mi East 3.5 mph - N/A   Clear
7:53 AM 30.0 °F - 27.0 °F 88% 30.19 in 10.0 mi Calm Calm - N/A   Clear
8:53 AM 37.9 °F - 33.1 °F 83% 30.19 in 10.0 mi Calm Calm - N/A   Clear
9:53 AM 44.1 °F - 35.1 °F 71% 30.17 in 10.0 mi Calm Calm - N/A   Clear
10:53 AM 50.0 °F - 35.1 °F 57% 30.16 in 10.0 mi Calm Calm - N/A   Clear
11:53 AM 54.0 °F - 36.0 °F 51% 30.14 in 10.0 mi Calm Calm - N/A   Clear
12:53 PM 55.9 °F - 36.0 °F 47% 30.12 in 10.0 mi Calm Calm - N/A   Clear
1:53 PM 57.9 °F - 36.0 °F 44% 30.10 in 10.0 mi Calm Calm - N/A   Clear
2:53 PM 61.0 °F - 35.1 °F 38% 30.09 in 10.0 mi Calm Calm - N/A   Clear
3:53 PM 62.1 °F - 32.0 °F 32% 30.07 in 10.0 mi Calm Calm - N/A   Clear
4:53 PM 64.0 °F - 33.1 °F 31% 30.06 in 10.0 mi NNW 3.5 mph - N/A   Clear
5:53 PM 64.0 °F - 30.0 °F 28% 30.07 in 10.0 mi North 9.2 mph - N/A   Clear
6:53 PM 54.0 °F - 36.0 °F 51% 30.09 in 10.0 mi North 12.7 mph - N/A   Clear
7:53 PM 50.0 °F - 35.1 °F 57% 30.09 in 10.0 mi North 10.4 mph - N/A   Clear
8:53 PM 48.0 °F - 36.0 °F 63% 30.09 in 10.0 mi North 8.1 mph - N/A   Clear
9:53 PM 45.0 °F 40.6 °F 35.1 °F 68% 30.10 in 10.0 mi North 8.1 mph - N/A   Clear
10:53 PM 45.0 °F 41.2 °F 35.1 °F 68% 30.10 in 10.0 mi ENE 6.9 mph - N/A   Clear
11:53 PM 41.0 °F - 34.0 °F 76% 30.10 in 10.0 mi Calm Calm - N/A   Clear